Weather History for Ft Lauderdale, FL

Change the Weather History Date:

Wednesday, August 7, 2013

  Actual Average Record
Temperature  
Mean Temperature 84 °F 85 °F  
Max Temperature 88 °F 91 °F 97 °F (1954)
Min Temperature 79 °F 79 °F 67 °F (1950)
Degree Days  
Heating Degree Days 0 0  
Month to date heating degree days 0 0  
Since 1 June heating degree days 0 0  
Since 1 July heating degree days 0 0  
Cooling Degree Days 19 20  
Month to date cooling degree days 128 140  
Year to date cooling degree days 2593 2699  
Since 1 June cooling degree days 1197 1281  
Growing Degree Days 34 (Base 50)    
Moisture  
Dew Point 74 °F    
Average Humidity 73    
Maximum Humidity 85    
Minimum Humidity 61    
Precipitation  
Precipitation 0.08 in 0.21 in 3.80 in (1928)
Month to date precipitation 0.64 1.50  
Year to date precipitation 55.64 35.13  
Snow  
Snow 0.00 in - - ()
Month to date snowfall 0.0  
Since 1 June snowfall 0.0  
Since 1 July snowfall 0.0  
Snow Depth 0.00 in    
Sea Level Pressure  
Sea Level Pressure 29.95 in    
Wind  
Wind Speed 9 mph (SE)    
Max Wind Speed 21 mph    
Max Gust Speed 24 mph    
Visibility 10 miles    
Events      
T = Trace of Precipitation, MM = Missing Value Source: NWS Daily Summary

Daily Weather History Graph

Daily Weather History Graph

Search for Another Location

Airport:

Trip Planner

Search our weather history database for the weather conditions in past years. The results will help you decide how hot, cold, wet, or windy it might be!

Date:

Astronomy

Aug. 07, 2013 Rise Set
Actual Time 6:49 AM EDT 8:02 PM EDT
Civil Twilight 6:25 AM EDT 8:27 PM EDT
Nautical Twilight 5:55 AM EDT 8:56 PM EDT
Astronomical Twilight 5:25 AM EDT 9:26 PM EDT
Moon 7:26 AM EDT (8/7) 8:22 PM EDT (8/7)
Length of Visible Light 14h 02m
Length of Day
13h 13m
New Moon, 1% of the Moon is Illuminated
Aug 7
New Moon
Aug 14
First Quarter
Aug 20
Full
Aug 28
Last Quarter
Sep 5
New

Hourly Weather History & Observations

Time (EDT) Temp. Heat Index Dew Point Humidity Pressure Visibility Wind Dir Wind Speed Gust Speed Precip Events Conditions
12:53 AM 80.1 °F 83.8 °F 72.0 °F 76% 29.95 in 10.0 mi Calm Calm - N/A   Clear
1:53 AM 80.1 °F 83.8 °F 72.0 °F 76% 29.93 in 10.0 mi ESE 4.6 mph - N/A   Clear
2:53 AM 80.1 °F 84.5 °F 73.9 °F 81% 29.92 in 10.0 mi Calm Calm - N/A   Partly Cloudy
3:53 AM 80.1 °F 85.1 °F 75.0 °F 85% 29.91 in 10.0 mi Calm Calm - N/A   Partly Cloudy
4:53 AM 82.0 °F 90.2 °F 77.0 °F 85% 29.91 in 10.0 mi SSE 6.9 mph - N/A   Scattered Clouds
5:53 AM 82.0 °F 88.6 °F 75.0 °F 79% 29.92 in 10.0 mi SE 5.8 mph - N/A   Scattered Clouds
6:53 AM 82.0 °F 87.9 °F 73.9 °F 76% 29.93 in 10.0 mi SSE 3.5 mph - N/A   Partly Cloudy
7:53 AM 82.0 °F 87.9 °F 73.9 °F 76% 29.94 in 10.0 mi Calm Calm - N/A   Clear
8:53 AM 82.0 °F 88.6 °F 75.0 °F 79% 29.96 in 10.0 mi SE 11.5 mph 18.4 mph N/A   Mostly Cloudy
9:53 AM 84.9 °F 93.3 °F 75.0 °F 72% 29.96 in 10.0 mi SE 9.2 mph - 0.08 in   Scattered Clouds
10:53 AM 86.0 °F 93.8 °F 73.9 °F 67% 29.97 in 10.0 mi SSE 12.7 mph - N/A   Scattered Clouds
11:53 AM 87.1 °F 95.4 °F 73.9 °F 65% 29.97 in 10.0 mi SSE 15.0 mph - N/A   Scattered Clouds
12:53 PM 84.0 °F 91.2 °F 73.9 °F 72% 29.98 in 10.0 mi SE 13.8 mph - N/A   Mostly Cloudy
1:53 PM 84.9 °F 92.1 °F 73.9 °F 69% 29.96 in 10.0 mi SE 11.5 mph - N/A   Scattered Clouds
2:53 PM 86.0 °F 93.8 °F 73.9 °F 67% 29.95 in 10.0 mi SSE 13.8 mph - N/A   Mostly Cloudy
3:53 PM 87.1 °F 95.4 °F 73.9 °F 65% 29.94 in 10.0 mi SE 11.5 mph - N/A   Scattered Clouds
4:53 PM 84.9 °F 90.7 °F 72.0 °F 65% 29.94 in 10.0 mi SE 10.4 mph - N/A   Partly Cloudy
5:53 PM 86.0 °F 92.2 °F 72.0 °F 63% 29.94 in 10.0 mi SE 10.4 mph - N/A   Partly Cloudy
6:53 PM 84.9 °F 92.1 °F 73.9 °F 69% 29.93 in 10.0 mi SE 10.4 mph - N/A   Partly Cloudy
7:53 PM 84.0 °F 91.9 °F 75.0 °F 74% 29.93 in 10.0 mi ESE 10.4 mph - N/A   Partly Cloudy
8:53 PM 82.9 °F 90.2 °F 75.0 °F 77% 29.94 in 10.0 mi SE 10.4 mph - N/A   Partly Cloudy
9:53 PM 82.9 °F 89.4 °F 73.9 °F 74% 29.96 in 10.0 mi ESE 9.2 mph - N/A   Clear
10:53 PM 82.9 °F 90.2 °F 75.0 °F 77% 29.99 in 10.0 mi SE 6.9 mph - N/A   Partly Cloudy
11:53 PM 82.9 °F 90.2 °F 75.0 °F 77% 29.99 in 10.0 mi ESE 9.2 mph - N/A   Partly Cloudy